Regional Weather Roundup
Issued by NWS Northern Indiana

Home | Current Version | Previous Version | Graphics & Text | Print | Product List | Glossary On
Versions: 1 2 3 4 5 6 7 8 9 10 11 12 13 14 15 16 17 18 19 20 21 22 23 24 25 26 27 28 29 30 31 32 33 34 35 36 37 38 39 40 41 42 43 44 45 46 47 48 49 50
000
ASUS43 KIWX 221910
RWRIWX

KIWX WEATHER ROUNDUP
NATIONAL WEATHER SERVICE NORTHERN INDIANA
300 PM EDT SUN OCT 22 2017

NOTE: "FAIR" INDICATES FEW OR NO CLOUDS BELOW 12,000 FEET WITH NO
SIGNIFICANT WEATHER AND/OR OBSTRUCTIONS TO VISIBILITY.

* THESE STATIONS ARE NOT UNDER NWS QUALITY CONTROL. THEY ALSO MAY NOT
  REPORT WEATHER SUCH AS PRECIPITATION OR FOG.

INZ001>027-222000-
NORTHERN INDIANA

CITY           SKY/WX    TMP DP  RH WIND       PRES   REMARKS
GARY*          CLOUDY    73  59  60 S9        29.93F
VALPARAISO     PTSUNNY   73  60  63 S14G35    29.96F
MICHIGAN CITY*   N/A     73  59  60 S14       29.95
LAPORTE*       CLOUDY    71  59  64 S15G22    29.97F
KNOX*          CLOUDY    72  59  64 S13       29.97F
SOUTH BEND     CLOUDY    72  60  66 S15G28    29.97F
GOSHEN         CLOUDY    75  56  51 S20G28    29.99F
MONTICELLO*    PTSUNNY   76  58  54 S14G21    29.97F
LOGANSPORT*    PTSUNNY   75  59  57 S13G20    29.99F
WARSAW*        MOSUNNY   73  59  60 S9G18     30.00F
AUBURN*        PTSUNNY   75  54  46 S9        30.04F
FORT WAYNE     CLOUDY    78  56  46 S18       30.04F
HUNTINGTON*    MOSUNNY   78  56  47 S10G20    30.02F
MARION*        SUNNY     77  57  50 S21G26    30.04F

$$
INZ028>050-222000-
CENTRAL INDIANA

CITY           SKY/WX    TMP DP  RH WIND       PRES   REMARKS
LAFAYETTE      PTSUNNY   75  59  57 S12G21    29.97F
KOKOMO*        MOSUNNY   76  59  55 S20       30.01F
MUNCIE*        SUNNY     79  56  45 S14G26    30.05F
INDIANAPOLIS   PTSUNNY   76  59  55 S17       30.02F

$$
MIZ043>046-050>051-056>058-064>065-071>073-077>080-222000-
SOUTHWEST LOWER MICHIGAN

CITY           SKY/WX    TMP DP  RH WIND       PRES   REMARKS
BATTLE CREEK   CLOUDY    74  59  59 S16       30.00F
BENTON HARBOR  CLOUDY    73  58  59 S15G23    29.95F
COLDWATER*     PTSUNNY   74  54  50 S8G20     30.01F
HILLSDALE*     MOSUNNY   75  54  46 S16G22    30.04F
HOLLAND        CLOUDY    73  59  61 S14G25    29.95F
GRAND RAPIDS   PTSUNNY   74  60  61 S17       29.96F
KALAMAZOO      CLOUDY    73  56  54 S16G22    29.98F
STURGIS*       CLOUDY    73  58  58 S17       30.00F
THREE RIVERS*  FAIR      73  58  57 S13G20    30.00F

$$
OHZ001>008-015>018-024>025-222000-
NORTHWEST OHIO

CITY           SKY/WX    TMP DP  RH WIND       PRES   REMARKS
WAUSEON*       FAIR      79  55  44 S16G25    30.06F
DEFIANCE       SUNNY     78  54  43 S16       30.05F
FINDLAY        SUNNY     80  54  40 S14G23    30.08F
TOLEDO EXPRESS SUNNY     79  58  48 S15G23    30.07F
TOLEDO METCALF SUNNY     80  56  43 S18       30.08F
LIMA           SUNNY     76  55  48 S17       30.09F

$$
AND FOR LAKE MICHIGAN COASTAL AND OPEN LAKE BUOY OBSERVATIONS

STATION/POSITION TEMP    WIND        PRES    VSBY  WAVE
                 AIR SEA DIR/SP/G                  HT/PER
                 (F)     (DEG/KT/KT) (MB)    (MI)  (FT/S)
CALUMET HARBOR    71     180/ 14/ 18 1012.4F
MICHIGAN CITY     72     170/ 18/ 23   N/A
BURNS HARBOR      72     190/ 18/ 26 1013.5F
SAINT JOSEPH      72     200/  7/ 11 1014.2
SOUTH LAKE BUOY   63 61  160/ 17/ 19 1013.5          3/ 5
4 MI NW BRIDGMAN  68 60  190/ 16/ 21 1013.8          3/ 4
MICHIGAN CITY     69 58  190/ 17/ 23   N/A           2/ 2

$$
&&




USA.gov is the U.S. government's official web portal to all federal, state and local government web resources and services.